Regional Weather Roundup
Issued by NWS

Home | Current Version | Previous Version | Graphics & Text | Print | Product List | Glossary On
Versions: 1 2 3 4 5 6 7 8 9 10 11 12 13 14 15 16 17 18 19 20 21 22 23 24 25 26 27 28 29 30 31 32 33 34 35 36 37 38 39 40 41 42 43 44 45 46 47 48 49 50
000
ASUS45 KABQ 200610
RWRNM
NEW MEXICO REGIONAL WEATHER ROUNDUP
NATIONAL WEATHER SERVICE ALBUQUERQUE NM
1100 PM MST SUN FEB 19 2017

NOTE: "FAIR" MEANS FEW OR NO CLOUDS BELOW 12,000 FEET AGL WITH NO
       SIGNIFICANT WEATHER OR OBSTRUCTIONS TO VISION.

      THIS PRODUCT IS RELEASED AS TWO VERSIONS.  ONE VERSION NEAR
      THE TOP OF THE HOUR CONTAINING PRELIMINARY DATA FROM ALBUQUERQUE
      AND OTHER STATIONS.  A FINAL VERSION WITH ADDITIONAL DATA IS
      ISSUED ABOUT 10 MINUTES AFTER THE HOUR.

NMZ501-503-504-510>518-200700-
NORTHWEST PLATEAU/NORTHCENTRAL MOUNTAINS

CITY           SKY/WX    TMP DP  RH WIND       PRES   REMARKS
FARMINGTON     CLOUDY    38  36  92 W3        29.99R
6HR MIN TEMP:  38; 6HR MAX TEMP:  43; 6HR PCP:  0.01;

LOS ALAMOS     CLOUDY    35  28  74 S5        29.97S WCI  31
SANTA FE       CLOUDY    34  30  85 SW7       29.97R WCI  28
6HR MIN TEMP:  33; 6HR MAX TEMP:  43;

TAOS           CLOUDY    34  21  60 SW13      29.94S WCI  25
ANGEL FIRE     CLOUDY    30  24  79 W9        29.93R WCI  22

$$
NMZ402-403-502-505>509-200700-
WESTCENTRAL MOUNTAINS/SOUTHWEST MOUNTAINS

CITY           SKY/WX    TMP DP  RH WIND       PRES   REMARKS
GALLUP         LGT RAIN  36  34  92 SW10      30.06R WCI  28
6HR MIN TEMP:  35; 6HR MAX TEMP:  39; 6HR PCP:  0.03;

GRANTS         CLOUDY    35  32  89 CALM      30.06R
SILVER CITY    CLOUDY    40  36  84 N3        30.09R

$$
NMZ407-409-411-412-200700-
SOUTHERN DESERTS

CITY           SKY/WX    TMP DP  RH WIND       PRES   REMARKS
DEMING         CLOUDY    45  38  76 W10       30.08S
6HR MIN TEMP:  43; 6HR MAX TEMP:  53;

LAS CRUCES     FAIR      44  36  74 W14       30.06F
HOLLOMAN AFB   FAIR      46  33  61 NW7       30.04F
ALAMOGORDO     FAIR      45  30  57 N6        30.02F
T OR C         FAIR      42  31  64 CALM      30.03S
6HR MIN TEMP:  42; 6HR MAX TEMP:  54;


$$
NMZ519>523-200700-
CENTRAL VALLEYS/CENTRAL HIGHLANDS

CITY           SKY/WX    TMP DP  RH WIND       PRES   REMARKS
ALBUQUERQUE    MOCLDY    43  32  65 SW8       30.00S
6HR MIN TEMP:  43; 6HR MAX TEMP:  52;

DOUBLE EAGLE   FAIR      37  32  82 SW9       30.00S WCI  30
MORIARTY ARPT  MOCLDY    35  32  90 SW7       29.99S WCI  29
6HR MIN TEMP:  33; 6HR MAX TEMP:  47;

CLINES CORNERS FAIR      32  29  88 W21       29.95F WCI  20
6HR MIN TEMP:  31; 6HR MAX TEMP:  41; 6HR PCP: TRACE;

BELEN          MOCLDY    41  32  70 SW7       30.02R
6HR MIN TEMP:  41; 6HR MAX TEMP:  50;

SOCORRO        CLOUDY    42  34  71 CALM      30.01S
6HR MIN TEMP:  41; 6HR MAX TEMP:  54;


$$
NMZ524>526-539-540-200700-
SOUTHCENTRAL MOUNTAINS

CITY           SKY/WX    TMP DP  RH WIND       PRES   REMARKS
RUIDOSO        FAIR      32  30  93 NW10G17   29.99F WCI  24

$$
NMZ527>531-200700-
NORTHEAST HIGHLANDS/NORTHEAST PLAINS

CITY           SKY/WX    TMP DP  RH WIND       PRES   REMARKS
LAS VEGAS      FAIR      33  24  69 S9        29.87F WCI  25
6HR MIN TEMP:  31; 6HR MAX TEMP:  45;

RATON          FAIR      36  18  48 W5        29.80R WCI  32
6HR MIN TEMP:  36; 6HR MAX TEMP:  52;

CLAYTON        FAIR      39  28  64 SW12      29.77R WCI  32
6HR MIN TEMP:  39; 6HR MAX TEMP:  54;


$$
NMZ532>537-200700-
EASTCENTRAL PLAINS

CITY           SKY/WX    TMP DP  RH WIND       PRES   REMARKS
TUCUMCARI      FAIR      48  32  53 W22G35    29.81F
6HR MIN TEMP:  45; 6HR MAX TEMP:  60;

CANNON AFB     FAIR      43  30  59 W13       29.84F
6HR MIN TEMP:  41; 6HR MAX TEMP:  55;

CLOVIS AIRPORT FAIR      45  28  53 W13       29.84F

$$
NMZ028-029-538-200700-
SOUTHEAST PLAINS

CITY           SKY/WX    TMP DP  RH WIND       PRES   REMARKS
ROSWELL        FAIR      38  27  64 W6          N/A  WCI  33
6HR MIN TEMP:  38; 6HR MAX TEMP:  62;

ARTESIA        FAIR      46  30  53 W13       29.91F
CARLSBAD       FAIR      50  30  46 W12       29.90F
6HR MIN TEMP:  48; 6HR MAX TEMP:  61;

HOBBS          FAIR      45  27  49 W5        29.92R


$$




USA.gov is the U.S. government's official web portal to all federal, state and local government web resources and services.